Temp
12 12 12 12 12 12 12 12 12 11 11 11 10 10 10 10 10 10 9 9 9 9 9 9 9 9 9 9 9 9 9 9 9 9 9 9 9 9 8 8 8 8 8
12 12 12 12 12 12 12 12 11 11 11 10 10 10 10 10 10 10 9 9 9 9 9 9 9 9 9 9 9 8 9 8 8 8 8 8 9 9 8 8 8 8 8
12 12 12 12 11 11 11 11 10 10 10 10 10 10 10 10 9 9 9 9 9 9 9 9 8 9 8 8 8 8 8 8 8 8 8 8 8 8 8 8 8 8 8
12 12 12 11 11 11 11 11 10 10 10 9 9 9 9 9 9 9 9 9 9 9 8 8 8 8 8 8 8 8 8 8 8 8 8 8 8 8 8 8 8 8 7
12 12 11 11 11 11 11 11 10 10 9 9 9 8 8 8 8 8 8 8 8 8 8 8 8 8 8 8 8 8 8 8 8 8 8 8 8 8 8 8 8 8 7
11 11 11 11 11 11 10 10 10 9 8 8 8 8 8 7 7 7 7 7 7 7 7 7 7 8 8 8 8 8 8 8 8 7 7 7 7 7 7 7 7 8 8
11 11 10 10 10 10 10 9 9 9 8 8 8 7 7 7 7 7 7 7 7 7 6 7 7 7 7 7 7 7 7 7 7 7 7 7 7 7 7 7 7 7 7
11 11 10 10 9 9 9 9 8 8 8 8 8 8 7 7 7 7 7 7 6 6 6 6 6 6 6 6 6 7 7 7 7 7 7 7 7 7 7 7 7 7 7
11 11 11 10 9 9 8 8 8 8 8 8 8 7 7 7 7 6 7 6 6 6 6 6 6 6 6 6 6 6 6 6 6 6 7 7 7 7 7 7 7 7 7
11 11 11 10 10 9 9 9 9 8 8 8 8 7 7 7 6 7 6 6 6 6 6 6 6 6 6 6 6 6 6 6 6 6 6 7 7 7 6 6 7 7 7
10 10 10 10 10 9 9 9 9 8 8 8 7 7 7 7 6 5 5 6 6 5 5 5 5 5 5 5 6 6 5 6 6 6 6 6 6 6 6 6 6 6 6
10 10 10 9 9 9 9 9 8 9 8 8 8 7 8 8 6 6 6 6 5 5 6 5 5 5 5 5 5 5 5 5 6 6 6 6 6 6 6 6 6 6 6
9 8 8 8 8 8 8 8 8 8 8 8 8 8 7 7 6 6 5 4 5 5 6 5 4 4 4 4 5 5 5 5 5 6 6 6 5 5 6 6 6 6 6
7 7 7 7 7 7 7 7 7 7 7 7 7 7 6 6 6 6 6 6 5 4 5 7 6 5 5 4 4 5 5 5 6 6 6 6 6 5 5 6 6 6 6
6 6 6 6 6 6 6 6 5 5 5 5 6 5 5 5 6 5 5 6 5 5 4 5 5 6 5 5 4 5 5 6 5 5 6 6 6 5 5 5 6 6 6
6 5 5 5 5 5 4 4 4 4 4 4 4 4 4 4 4 4 4 4 5 5 5 4 4 6 6 5 5 4 4 5 6 5 6 6 6 6 5 5 6 6 6
5 5 5 5 5 4 4 4 5 4 4 4 5 4 4 4 4 3 3 3 3 3 4 5 5 3 3 5 6 5 4 4 5 6 6 6 6 6 6 6 6 6 6
3 4 4 4 4 4 4 4 4 4 4 4 3 3 3 4 3 3 4 3 3 3 3 3 4 4 4 4 5 7 7 6 5 5 6 6 6 6 7 6 6 6 6
3 3 4 4 4 3 4 3 3 3 2 2 1 1 0 1 1 2 2 2 3 3 3 3 3 4 3 3 4 3 3 3 5 5 5 6 6 6 6 7 6 6 6
3 3 3 3 3 3 3 3 2 1 0 -0 -1 -1 -2 -2 -2 -1 -0 0 0 2 2 2 3 3 3 3 3 3 3 6 7 6 5 6 6 6 7 7 7 7 6
3 3 2 2 2 2 1 1 -0 -1 -3 -3 -3 -4 -4 -3 -3 -3 -2 -2 -2 -1 0 1 2 3 4 3 3 3 4 4 3 4 5 4 4 6 6 7 7 7 7
2 2 2 2 1 0 -1 -3 -4 -4 -4 -4 -4 -5 -5 -5 -4 -4 -3 -3 -3 -2 -1 -0 0 1 3 4 3 3 4 4 4 4 5 5 4 5 5 6 6 6 7
2 2 2 0 -1 -3 -5 -5 -5 -5 -5 -5 -5 -5 -5 -5 -5 -4 -4 -3 -3 -3 -2 -2 -1 1 2 3 2 0 1 2 3 4 4 4 5 5 4 5 5 6 6
1 0 -1 -1 -3 -5 -6 -6 -6 -6 -6 -6 -6 -6 -6 -5 -5 -5 -5 -5 -4 -4 -3 -2 -2 -1 -2 2 2 1 1 0 2 2 2 3 5 5 5 4 4 5 5
0 -0 -1 -3 -5 -6 -7 -7 -7 -7 -7 -7 -6 -6 -6 -6 -6 -5 -5 -5 -5 -4 -4 -3 -3 -4 -4 -2 -1 1 1 1 2 2 3 2 3 2 5 4 4 4 5
-0 -1 -2 -4 -5 -6 -7 -7 -7 -7 -7 -7 -6 -6 -6 -6 -6 -7 -7 -7 -7 -6 -6 -6 -6 -5 -6 -3 -2 -1 -1 -0 1 1 1 2 2 2 2 3 3 4 5
Height
3174 3172 3171 3170 3169 3169 3169 3169 3169 3169 3170 3170 3171 3172 3172 3171 3172 3171 3172 3171 3171 3170 3170 3170 3169 3170 3170 3171 3170 3170 3170 3170 3170 3169 3170 3170 3170 3169 3169 3168 3168 3169 3169
3177 3175 3173 3172 3172 3172 3172 3172 3172 3172 3172 3173 3173 3174 3174 3173 3173 3173 3173 3173 3172 3172 3171 3171 3171 3170 3170 3170 3171 3171 3171 3171 3171 3171 3170 3170 3170 3170 3169 3169 3169 3169 3169
3180 3178 3176 3175 3174 3173 3172 3172 3172 3173 3173 3174 3174 3174 3174 3174 3174 3175 3174 3173 3173 3172 3172 3171 3172 3172 3171 3171 3171 3171 3171 3172 3171 3171 3171 3171 3170 3170 3170 3170 3169 3169 3169
3182 3180 3178 3177 3176 3175 3174 3174 3173 3173 3173 3173 3173 3173 3173 3173 3173 3173 3173 3173 3173 3172 3172 3171 3171 3171 3172 3172 3172 3172 3171 3171 3171 3171 3171 3171 3171 3171 3170 3169 3169 3169 3168
3183 3181 3179 3177 3176 3174 3173 3173 3173 3172 3172 3172 3172 3172 3172 3172 3172 3172 3171 3171 3171 3171 3171 3171 3171 3171 3170 3171 3171 3171 3171 3171 3170 3170 3170 3170 3170 3170 3169 3169 3169 3168 3168
3184 3182 3180 3178 3177 3175 3174 3172 3170 3169 3170 3171 3171 3171 3171 3171 3171 3170 3170 3169 3169 3169 3169 3169 3169 3169 3169 3169 3168 3169 3169 3169 3169 3168 3168 3169 3169 3169 3169 3168 3169 3169 3168
3183 3181 3180 3178 3177 3175 3174 3173 3172 3171 3169 3168 3169 3169 3169 3169 3168 3168 3167 3166 3166 3166 3166 3166 3166 3167 3167 3166 3167 3166 3166 3166 3166 3167 3166 3166 3166 3167 3167 3168 3167 3168 3168
3182 3180 3178 3176 3175 3173 3172 3171 3171 3170 3169 3168 3168 3167 3167 3167 3167 3165 3164 3163 3162 3162 3162 3162 3162 3162 3162 3163 3163 3163 3163 3163 3162 3163 3163 3164 3164 3164 3164 3165 3166 3166 3166
3181 3179 3177 3174 3173 3171 3170 3168 3167 3167 3166 3166 3165 3164 3162 3160 3161 3162 3162 3161 3160 3159 3158 3158 3158 3158 3157 3157 3157 3158 3159 3158 3158 3158 3159 3160 3161 3161 3162 3162 3163 3163 3164
3180 3178 3176 3174 3171 3170 3168 3167 3165 3164 3163 3161 3161 3160 3158 3157 3156 3154 3155 3157 3157 3156 3154 3153 3153 3152 3152 3151 3151 3151 3151 3151 3152 3153 3154 3155 3156 3156 3157 3158 3159 3160 3160
3179 3176 3174 3171 3168 3166 3165 3163 3163 3161 3160 3159 3157 3156 3155 3154 3153 3151 3149 3147 3147 3147 3147 3147 3147 3146 3146 3145 3145 3145 3144 3144 3145 3146 3147 3150 3151 3151 3151 3152 3153 3155 3156
3176 3174 3171 3168 3166 3164 3162 3160 3159 3157 3155 3154 3152 3150 3148 3145 3142 3141 3140 3144 3142 3140 3141 3139 3138 3139 3138 3138 3138 3138 3138 3138 3139 3139 3140 3142 3144 3146 3147 3147 3148 3149 3150
3174 3171 3169 3167 3164 3162 3160 3158 3155 3153 3150 3147 3144 3142 3140 3138 3137 3134 3131 3131 3128 3131 3127 3131 3128 3129 3128 3127 3127 3128 3129 3130 3131 3132 3133 3135 3136 3138 3140 3141 3142 3143 3143
3171 3169 3167 3165 3163 3160 3158 3155 3153 3151 3147 3144 3140 3136 3133 3130 3127 3126 3123 3121 3118 3118 3119 3119 3117 3118 3119 3119 3118 3118 3119 3120 3121 3123 3126 3126 3128 3130 3131 3133 3135 3136 3137
3169 3167 3164 3161 3159 3156 3153 3150 3147 3143 3140 3136 3133 3129 3125 3122 3119 3116 3113 3110 3108 3107 3106 3106 3103 3103 3106 3107 3108 3108 3109 3110 3111 3112 3114 3118 3119 3121 3122 3124 3126 3128 3130
3166 3162 3159 3156 3153 3150 3147 3144 3141 3139 3136 3132 3127 3122 3119 3114 3110 3105 3101 3098 3096 3095 3093 3092 3091 3093 3096 3092 3093 3095 3097 3099 3101 3102 3104 3106 3109 3111 3113 3115 3117 3119 3121
3163 3160 3157 3152 3149 3145 3141 3137 3133 3128 3124 3121 3117 3113 3109 3105 3101 3096 3092 3089 3084 3082 3080 3078 3079 3079 3078 3073 3074 3081 3084 3086 3088 3090 3092 3095 3097 3099 3102 3105 3108 3110 3112
3161 3158 3155 3151 3147 3143 3138 3133 3128 3123 3116 3109 3103 3098 3095 3091 3089 3085 3080 3077 3074 3072 3070 3068 3066 3064 3060 3059 3059 3063 3066 3071 3073 3076 3079 3082 3087 3089 3091 3095 3098 3100 3102
3157 3153 3149 3144 3140 3135 3129 3124 3118 3112 3107 3101 3094 3087 3081 3075 3071 3068 3065 3062 3059 3058 3056 3055 3053 3051 3049 3048 3047 3045 3045 3049 3057 3063 3065 3068 3073 3077 3080 3084 3088 3091 3091
3152 3147 3143 3138 3134 3128 3120 3114 3108 3102 3095 3089 3083 3077 3071 3065 3059 3054 3050 3047 3043 3042 3040 3038 3037 3038 3037 3037 3034 3033 3031 3038 3042 3045 3051 3055 3059 3062 3068 3073 3076 3079 3082
3149 3144 3137 3129 3122 3115 3109 3101 3095 3088 3082 3076 3071 3067 3061 3055 3048 3042 3037 3032 3029 3025 3024 3023 3021 3020 3023 3025 3024 3023 3025 3025 3023 3027 3036 3041 3045 3049 3053 3058 3064 3067 3071
3143 3136 3129 3122 3114 3108 3101 3094 3088 3081 3074 3067 3059 3053 3049 3045 3038 3031 3026 3020 3015 3011 3010 3008 3006 3004 3005 3008 3008 3011 3009 3010 3009 3012 3020 3027 3033 3036 3039 3045 3050 3055 3059
3137 3130 3122 3114 3106 3098 3091 3085 3080 3074 3067 3059 3052 3044 3037 3031 3025 3018 3013 3008 3003 2999 2994 2993 2991 2988 2988 2994 2994 2998 2999 2997 3002 3002 3003 3008 3018 3023 3027 3033 3039 3044 3047
3131 3124 3115 3106 3098 3089 3083 3076 3069 3062 3054 3047 3040 3033 3026 3019 3011 3006 3000 2995 2990 2986 2982 2978 2976 2974 2973 2976 2979 2983 2985 2988 2991 2991 2991 2995 2999 3006 3014 3021 3028 3033 3037
3124 3117 3106 3097 3089 3082 3075 3069 3062 3054 3048 3040 3034 3027 3020 3012 3004 2996 2990 2984 2978 2974 2969 2965 2963 2962 2962 2964 2964 2967 2971 2973 2978 2979 2980 2983 2984 2990 2999 3005 3015 3021 3026
3118 3109 3098 3089 3081 3075 3068 3061 3055 3049 3042 3035 3027 3019 3011 3005 2997 2989 2982 2975 2969 2964 2959 2955 2953 2951 2951 2953 2954 2955 2957 2961 2967 2970 2971 2972 2975 2980 2983 2996 3000 3006 3012
Wind_Speed
27 22 20 17 15 13 10 8 7 6 5 5 5 5 5 4 3 2 4 4 4 4 5 5 5 6 5 4 5 6 6 7 7 7 7 7 8 11 13 14 14 14 14
29 32 30 24 22 18 14 11 9 8 8 7 6 6 5 6 6 5 6 6 5 5 5 5 5 5 5 5 5 4 4 5 6 6 7 7 8 9 12 13 12 13 13
23 24 25 25 22 19 14 9 8 8 8 9 9 9 8 7 6 7 8 8 7 7 6 6 5 5 5 5 5 6 5 4 5 5 5 6 7 8 8 10 11 12 12
19 20 20 19 19 18 18 14 10 8 8 9 10 10 10 9 9 9 8 9 9 9 8 8 8 8 8 8 7 7 6 6 5 4 5 5 5 5 6 7 8 10 10
14 15 15 14 13 12 12 12 12 10 9 10 12 13 13 13 12 12 11 11 11 11 11 11 11 11 11 11 10 9 8 7 7 6 6 6 5 5 4 4 5 8 10
10 10 10 11 12 12 12 9 5 5 9 11 13 14 15 16 15 15 14 14 13 13 13 14 14 13 14 14 13 13 12 11 10 9 8 8 7 7 6 5 6 7 7
8 8 9 11 13 15 15 14 13 12 11 12 15 17 18 18 18 18 18 17 16 16 15 15 16 16 16 16 16 16 15 14 13 12 12 11 11 11 10 10 9 9 9
11 8 7 9 10 12 14 16 16 16 15 16 16 16 19 23 25 23 22 21 20 19 19 19 18 18 18 18 18 17 17 16 15 14 14 14 13 14 14 14 15 14 13
13 13 13 13 12 11 12 13 15 17 18 18 18 19 19 19 21 28 29 27 26 25 24 23 23 22 22 21 20 20 20 19 19 17 16 16 15 15 15 15 15 17 17
9 10 13 16 18 19 19 20 21 21 20 22 22 25 25 23 27 25 27 31 32 31 29 28 28 27 27 26 25 24 24 24 23 21 20 17 18 18 18 18 18 17 18
9 10 12 13 16 18 19 20 20 22 25 26 27 27 30 33 31 35 31 31 35 35 35 34 34 33 32 32 31 29 29 29 27 25 23 20 21 21 20 20 20 20 21
12 12 13 14 17 19 21 19 17 17 21 21 22 21 26 31 33 38 36 44 49 36 42 39 38 38 38 37 36 35 34 33 32 29 27 25 24 24 24 22 22 22 22
11 11 13 14 14 16 16 17 17 19 19 20 22 23 24 28 31 37 42 37 31 42 51 48 40 43 44 43 42 41 40 38 37 35 31 29 28 28 26 25 24 24 24
7 9 12 12 14 18 20 20 21 22 22 23 24 24 23 23 24 28 28 28 32 36 32 44 59 51 48 49 48 47 45 44 41 40 37 34 32 31 31 29 27 27 26
10 13 15 18 19 21 23 23 22 23 24 25 27 29 31 33 33 34 34 31 28 31 44 37 47 57 60 55 53 52 50 49 47 46 43 39 37 36 35 34 33 31 29
15 17 19 20 21 22 23 25 27 29 32 35 35 35 36 38 39 40 38 34 33 31 32 38 41 42 56 69 65 60 54 55 54 51 48 45 42 40 39 39 38 36 34
19 22 24 27 30 33 35 38 41 45 46 47 47 44 41 40 40 40 39 33 32 32 35 35 39 41 51 50 78 71 64 62 60 58 53 51 48 45 43 42 42 41 38
22 25 28 33 36 41 44 47 51 53 53 52 52 53 52 49 47 44 44 44 43 39 34 32 34 35 39 38 49 68 78 73 68 61 58 57 54 50 48 46 45 44 44
31 36 40 43 47 50 52 53 53 53 54 54 53 50 50 50 48 47 44 42 42 45 45 44 41 37 35 37 38 40 46 57 68 62 64 60 59 56 53 51 48 47 47
37 41 45 47 50 54 57 57 58 56 54 52 51 50 48 44 40 37 38 38 38 41 43 44 50 47 45 38 33 36 33 54 73 78 69 61 62 61 58 55 54 52 50
40 44 50 56 59 60 60 61 60 58 53 49 49 47 38 37 37 36 36 37 38 39 39 41 45 49 51 47 41 42 45 45 48 53 63 55 53 55 53 54 54 56 53
47 52 57 60 61 60 60 59 55 52 50 50 52 53 46 39 39 39 40 41 40 41 39 38 41 43 50 52 46 48 45 42 42 45 58 60 49 45 48 48 47 50 53
53 57 61 62 62 59 56 52 46 46 49 51 51 50 47 47 44 43 43 44 43 42 41 38 38 42 43 46 48 45 46 46 40 47 40 54 62 52 48 42 44 45 47
56 58 60 60 57 54 51 48 47 51 51 47 46 46 47 48 49 46 41 42 43 42 38 37 38 43 38 42 44 46 49 47 45 45 45 44 54 65 52 44 36 37 42
57 60 57 52 46 45 45 46 46 45 45 44 45 46 46 45 45 45 42 37 37 36 34 33 35 42 33 32 40 43 47 51 51 54 52 48 47 52 63 57 47 37 31
58 55 54 49 40 38 40 43 41 43 42 45 48 47 45 46 46 42 35 30 28 31 28 27 27 33 38 32 34 38 40 40 45 49 45 35 33 32 58 47 49 46 38
Wind_Direction
38 31 29 27 25 22 19 19 24 26 23 21 16 360 358 354 332 306 274 256 232 210 197 183 169 158 146 138 135 130 129 131 131 131 131 137 137 135 132 130 129 127 125
42 44 41 34 31 23 12 8 5 4 356 351 347 345 344 338 330 307 281 271 261 249 240 220 201 185 173 163 160 149 150 145 144 145 139 136 137 142 138 133 130 129 128
46 47 44 42 36 30 21 10 3 349 336 330 326 324 319 320 312 296 286 278 272 258 251 249 242 231 221 210 191 183 185 181 169 160 153 150 151 151 147 142 139 137 136
41 46 44 38 34 30 23 14 3 344 323 310 302 298 296 295 291 290 286 279 272 265 257 252 250 249 247 239 232 220 210 202 204 198 186 183 176 176 169 162 155 148 142
40 46 43 35 31 34 35 23 6 346 322 306 296 291 288 285 285 287 285 280 276 273 270 262 257 254 250 248 246 245 240 232 219 217 219 215 217 213 209 205 194 178 162
43 40 32 17 7 1 357 353 346 313 302 296 290 286 284 283 281 281 281 281 279 276 275 273 269 263 261 258 252 249 251 249 245 235 232 238 236 235 236 231 236 224 201
39 22 15 2 350 344 342 337 328 316 303 292 291 290 286 281 279 277 274 274 273 272 270 269 269 267 264 261 262 259 253 251 251 250 246 241 241 241 241 241 237 243 237
344 340 346 347 340 334 327 324 321 313 305 301 297 296 299 299 294 283 276 271 267 265 264 262 260 261 261 262 261 261 260 256 249 248 249 249 247 243 241 242 245 243 245
333 334 327 317 309 306 305 304 301 300 300 296 292 287 285 282 289 293 286 277 271 265 261 259 258 256 256 256 255 258 260 257 254 249 246 247 251 251 250 247 246 245 242
334 326 326 317 312 307 306 304 302 296 290 286 286 283 284 277 288 274 277 281 277 271 264 260 257 255 254 252 252 251 252 253 252 252 250 246 243 245 249 249 248 246 242
313 317 315 300 299 304 306 306 304 307 305 301 294 285 280 285 288 290 281 273 272 268 265 263 259 256 255 253 251 249 249 250 251 250 251 249 250 246 242 244 247 247 248
304 291 313 299 288 295 299 304 306 300 294 293 299 295 288 285 277 270 283 274 284 276 274 265 262 259 256 254 253 251 251 252 251 250 249 247 247 250 250 245 243 245 247
320 311 309 305 296 293 293 295 294 291 290 287 287 289 286 282 281 276 276 267 300 272 280 268 269 265 260 256 252 250 249 250 251 251 248 246 245 247 250 251 250 245 244
322 312 309 304 296 293 295 297 298 299 300 301 301 302 299 291 286 285 289 288 280 260 270 278 267 267 267 265 258 253 250 248 247 248 248 245 247 247 249 250 251 251 248
317 322 319 323 320 321 323 323 323 321 317 312 310 309 307 306 303 301 303 298 288 277 263 259 267 264 263 265 267 260 254 252 248 248 245 244 243 245 247 250 251 252 251
323 320 324 322 320 319 317 316 315 314 316 316 314 311 307 303 301 299 297 292 287 280 273 262 253 259 277 266 260 261 262 257 252 249 248 246 242 241 244 246 249 251 254
323 322 317 314 316 317 315 313 313 315 315 313 311 309 304 299 295 290 286 282 275 275 272 268 261 261 262 262 260 261 265 264 257 252 250 248 247 242 241 244 245 247 248
323 318 320 320 319 318 318 317 316 315 315 314 312 310 308 304 301 296 288 282 277 272 270 270 268 267 274 276 251 254 259 258 260 253 251 251 248 247 246 243 245 246 248
326 329 326 325 324 322 320 319 319 317 317 316 315 315 313 310 306 301 296 288 283 275 270 267 267 268 266 269 269 262 251 252 254 258 257 251 251 250 248 248 245 245 246
330 327 324 320 318 319 320 322 319 320 320 320 318 317 316 316 312 306 298 291 284 275 272 267 264 263 267 271 263 257 263 253 255 257 260 258 254 252 251 249 247 244 245
324 323 326 328 328 327 324 322 323 326 328 326 323 325 319 312 310 306 302 298 292 285 275 268 260 256 259 262 262 252 257 262 253 247 253 254 256 252 250 248 249 246 243
322 326 328 327 325 323 324 326 329 327 325 322 321 322 320 314 313 308 304 298 301 295 284 274 267 261 252 253 252 257 259 265 258 252 256 253 248 244 246 244 243 245 242
324 324 325 324 324 325 325 326 323 317 316 315 316 317 319 320 319 314 307 304 302 300 294 283 270 262 254 246 247 243 252 260 262 255 263 245 244 244 240 242 244 242 243
329 328 324 323 323 322 321 320 316 317 319 320 323 325 324 324 324 320 313 304 304 302 295 288 275 262 261 251 242 243 237 241 250 259 260 257 245 245 235 239 240 241 241
326 324 325 324 320 317 318 318 325 328 329 332 331 328 327 326 325 323 318 309 305 302 291 277 271 267 263 266 256 245 242 238 246 243 256 263 255 243 231 230 233 232 232
325 328 329 327 325 320 318 324 331 330 331 331 330 329 329 328 326 324 320 314 310 309 296 283 282 273 261 267 258 254 252 250 237 249 254 255 260 269 229 232 233 230 230